Regional Weather Roundup
Issued by NWS

Home | Current Version | Previous Version | Graphics & Text | Print | Product List | Glossary On
Versions: 1 2 3 4 5 6 7 8 9 10 11 12 13 14 15 16 17 18 19 20 21 22 23 24 25 26 27 28 29 30 31 32 33 34 35 36 37 38 39 40 41 42 43 44 45 46 47 48 49 50
000
ASUS45 KSLC 291610
RWRUT

UTAH REGIONAL WEATHER ROUNDUP
NATIONAL WEATHER SERVICE SALT LAKE CITY UT
1000 AM MDT WED JUL 29 2015

UTZ001>011-023>025-291700-

NORTHERN UTAH

CITY           SKY/WX    TMP DP  RH WIND       PRES   REMARKS
BRIGHAM CITY   SUNNY     65  35  32 N5        30.32S
HILL AFB       SUNNY     64  34  32 E14       30.32R
LOGAN          SUNNY     59  38  45 CALM      30.35S
OGDEN          SUNNY     69  34  27 NW5       30.31R
PROVO AIRPORT  NOT AVBL
SALT LAKE CITY SUNNY     69  33  26 CALM      30.30S
VERNAL         SUNNY     70  22  16 S5        30.34R
WENDOVER       SUNNY     72  28  20 S3        30.31S
HEBER CITY     SUNNY     55  32  41 CALM      30.40S
WEST JORDAN    SUNNY     68  34  28 CALM      30.32S

$$

UTZ012>022-026-027-291700-

SOUTHERN/CENTRAL UTAH

CITY           SKY/WX    TMP DP  RH WIND       PRES   REMARKS
BLANDING       SUNNY     78  30  17 CALM      30.37S
BRYCE CANYON   MOSUNNY   68  30  24 NE7       30.45R
CEDAR CITY     SUNNY     67  25  20 CALM      30.33R
DELTA          SUNNY     67  28  22 CALM      30.31S
HANKSVILLE     SUNNY     73  28  19 CALM      30.26S
MILFORD        SUNNY     72  19  13 N12       30.30S
MOAB/CYNLANDS  SUNNY     80  26  13 N3        30.23R
PRICE          SUNNY     76  26  15 S3        30.32S
ST GEORGE      SUNNY     82  32  16 NW6       30.14F
KANAB          SUNNY     81  37  21 NW10      30.28F

$$

REGIONAL REPORTS     COLORADO/ARIZONA

CITY           SKY/WX    TMP DP  RH WIND       PRES   REMARKS
CRAIG, CO      SUNNY     64  30  27 NW5       30.39F
GRAND JUNCTION SUNNY     74  35  24 S10       30.27R
RIFLE          SUNNY     69  36  29 CALM      30.33F
MONTROSE       SUNNY     74  34  23 W3        30.34S
CORTEZ         SUNNY     76  41  28 SW5       30.30R
PAGE, AZ       MOSUNNY   83  31  15 N6        30.19R
GRAND CANYON   PTSUNNY   77  27  15 NE5       30.35R
KINGMAN        MOSUNNY   86  56  35 SW13      30.13R
FLAGSTAFF      MOSUNNY   71  50  47 SW6       30.35F

$$

REGIONAL REPORTS    NEVADA/IDAHO/WYOMING

CITY           SKY/WX    TMP DP  RH WIND       PRES   REMARKS
LAS VEGAS, NV  MOSUNNY   90  29  11 NE5       30.00R
ELY            SUNNY     64  20  18 VRB5      30.38S
ELKO           SUNNY     66  28  24 N6        30.32S
POCATELLO, ID  SUNNY     61  43  51 NW3       30.36S
BURLEY         SUNNY     62  39  42 NE8       30.32S
EVANSTON, WY   SUNNY     59  28  30 SE7       30.45S
ROCK SPRINGS   SUNNY     59  27  29 CALM      30.44S
KEMMERER       SUNNY     59  28  31 CALM      30.47R

$$


USA.gov is the U.S. government's official web portal to all federal, state and local government web resources and services.